Regional Weather Roundup
Issued by NWS

Home | Current Version | Previous Version | Text Only | Print | Product List | Glossary Off
Versions: 1 2 3 4 5 6 7 8 9 10 11 12 13 14 15 16 17 18 19 20 21 22 23 24 25 26 27 28 29 30 31 32 33 34 35 36 37 38 39 40 41 42 43 44 45 46 47 48 49 50

000
ASUS43 KOAX 300702
RWRNE

WEATHER ROUNDUP FOR NEBRASKA
NATIONAL WEATHER SERVICE OMAHA NE
200 AM CDT THU JUL 30 2015

NOTES: SATELLITE DATA IS BEING USED TO AUGMENT CLOUD COVER ABOVE
       12000 FEET.
       "FAIR" INDICATES FEW OR NO CLOUDS BELOW 12,000 FEET WITH NO
       SIGNIFICANT WEATHER AND/OR OBSTRUCTIONS TO VISIBILITY.

  * THESE STATIONS DO NOT REPORT WEATHER SUCH AS RAIN...SNOW OR FOG.

NEZ001>004-019>022-054>056-300800-
NEBRASKA PANHANDLE

CITY           SKY/WX    TMP DP  RH WIND       PRES   REMARKS
SCOTTSBLUFF    PTCLDY    66  50  56 E7        30.25R
ALLIANCE       PTCLDY    61  48  62 S6        30.24S
CHADRON        CLEAR     55  50  83 W6        30.20S
KIMBALL        CLEAR     63  46  55 S13G18    30.28F
SIDNEY         CLEAR     63  46  54 S12       30.28S
$$

NEZ057>060-069>072-079>082-300800-
SOUTHWEST NEBRASKA

CITY           SKY/WX    TMP DP  RH WIND       PRES   REMARKS
NORTH PLATTE   CLEAR     57  53  86 CALM      30.25S
IMPERIAL       CLEAR     59  50  72 S7        30.26F
MCCOOK         CLEAR     62  54  74 SE3       30.25S
$$

NEZ005>010-023>029-035>040-094-300800-
NORTH CENTRAL NEBRASKA

CITY           SKY/WX    TMP DP  RH WIND       PRES   REMARKS
VALENTINE      PTCLDY    60  50  69 W3        30.21R
AINSWORTH      CLEAR     66  54  65 W5        30.21R
BROKEN BOW     CLEAR     58  53  84 CALM      30.23S
ORD            CLEAR     60  54  80 CALM      30.19S
$$

NEZ041-046>049-061>064-073>077-083>087-300800-
SOUTH CENTRAL NEBRASKA

CITY           SKY/WX    TMP DP  RH WIND       PRES   REMARKS
GRAND ISLAND   CLEAR     61  54  77 SW5       30.22S
AURORA         CLEAR     58  57  95 SW6       30.21S
HASTINGS       CLEAR     62  56  80 SW3       30.23R
HEBRON         CLEAR     58  56  91 CALM      30.20S
HOLDREGE       CLEAR     60  51  73 S3        30.24S
KEARNEY *      CLEAR     63  52  67 SW7       30.23S
$$

NEZ011>018-030>034-042>045-300800-
NORTHEAST NEBRASKA

CITY           SKY/WX    TMP DP  RH WIND       PRES   REMARKS
NORFOLK        CLEAR     64  56  75 W5        30.17R
ALBION         CLEAR     65  53  65 W5        30.19F
BLAIR          CLEAR     65  58  76 SW3       30.17S
COLUMBUS *     CLEAR     63  55  77 CALM      30.19S
FREMONT        CLEAR     69  57  67 CALM      30.17S
TEKAMAH        CLEAR     64  60  87 SW5       30.15S
$$

NEZ050>053-065>068-078-088>093-300800-
SOUTHEAST NEBRASKA

CITY           SKY/WX    TMP DP  RH WIND       PRES   REMARKS
LINCOLN        CLEAR     64  58  80 CALM      30.19S
OMAHA EPPLEY   CLEAR     68  61  78 SE6       30.16S
BEATRICE       CLEAR     62  61  94 CALM      30.19S
FALLS CITY     CLEAR     66  65  96 CALM      30.17S
NEBRASKA CITY  CLEAR     64  57  77 SW3       30.18S
$$

NEZ044-045-051>053-067-300800-
OMAHA AREA

CITY           SKY/WX    TMP DP  RH WIND       PRES   REMARKS
OMAHA EPPLEY   CLEAR     68  61  78 SE6       30.16S
BLAIR          CLEAR     65  58  76 SW3       30.17S
FREMONT        CLEAR     69  57  67 CALM      30.17S
OFFUTT AFB     CLEAR     61  60  97 S3        30.16S
WAHOO          FAIR      65  60  83 SW7       30.17S
$$


USA.gov is the U.S. government's official web portal to all federal, state and local government web resources and services.